An interesting region + tiny sunspot has rotated into view (lower left) Photomosaic captured with a 100mm refractor and vesta pro webcam (Hazy cloudy conditions) Closer detail of the main sunspot groups Photomosaic captured with a 100mm refractor and vesta pro webcam + 1.5x barlows (Hazy cloudy...
The 150 - 340 metre wide asteroid 2006 TS7 made a close pass (39.5 lunar distances, 0.1015 AU), travelling at 16.39 km/second, to the Earth-Moon system on the 17th July 2014 @ 08:09 UT ±03:31. See moreThe Lunar Distance (LD), the distance between Earth and the Moon, equals 384,401 km, (or 0.00256 AU)...
THE METEOR OF JULY 27, 1894, 7h 30m P. S. T. By Edward S. Holden A great number of observations of this splendid meteor were received at the Lick Observatory, either directly, or through the kind offices of Hon. A. S. Towne, Hon. C. F. Crocker, Hon. R. Thompson and others. Some of the best were not availab...
A pair of interacting galaxies might be experiencing the galactic equivalent of a mid-life crisis. For some reason, the pair, called Arp 82, didn't make their stars early on as is typical of most galaxies. Instead, they got a second wind later in life — about 2 billion years ago — and started pumpi...
NGC 2636 (also UGC 4583 and PGC 24747) is a magnitude +13.7 elliptical galaxy located 95 million light-years away in the constellation Camelopardalis. The galaxy was discovered by German astronomer Wilhelm Tempel using a 27.94 cm (11 inch) f/19 refracting telescope at the Arcetri Observatory on...
NGC 2646 (also MCG 12-9-19, UGC 4604 and PGC 24838) is a magnitude +12.1 spiral galaxy located 169 million light-years away in the constellation Camelopardalis. The galaxy was discovered by German astronomer Wilhelm Tempel using a 27.94 cm (11 inch) f/19 refracting telescope at the Arcetri Obser...
Title: Variable stars in the globular cluster M28 (NGC 6626) Authors: G. Prieto (1,2), M. Catelan (1,3), R. Contreras Ramos (1,4), B. J. Pritzl (5), H. A. Smith (6), J. Alonso-Garcia (1,3) ((1) PUC-Chile, (2) LCO-Chile, (3) MWM Nucleus-Chile, (4) Univ. Bologna, (5) UW-Oshkosh, (6) MSU) We present...
NGC 6504 (also MCG 6-39-27, UGC 11053 and PGC 61129) is a magnitude +12.6 spiral galaxy located 220 million light-years away in the constellation Hercules. The galaxy was discovered by German astronomer Albert Marth using a 1.2m (48 inch) Newtonian reflector at William Lassell's Tigné Point obse...
NGC 6549 (also NGC 6550, MCG 3-46-12, UGC 11114 and PGC 61399) is a magnitude +13.8 spiral galaxy located 308 million light-years away in the constellation Hercules. The galaxy was discovered by German astronomer Albert Marth using a 1.2m (48 inch) Newtonian reflector at William Lassell's Tigné P...
Nearby Star Cluster, Long Forgotten, Now Discovered to Be Useful in Studies of Sun and Search for Planets Like Earth A loose group of stars, known for over 180 years but never before studied in detail, has been revealed to be an important new tool in the quest to understand the evolution of stars like th...
Orbital elements:
2010 UK8 PHA, Earth MOID = 0.0198 AU
Epoch 2014 May 23.0 TT = JDT 2456800.5 MPC
M 9.25154 (2000.0) P Q
n 0.30530139 Peri. 135.40843 -0.83818571 -0.54534585
a 2.1843230 Node 11.54845 +0.49083272 -0.75951060
e 0.7005574 Incl. 1.86884 +0.23775611 -0.35460055
P 3.23 H 19.9 G...
Orbital elements:
2014 OP2 Earth MOID = 0.0007 AU
Epoch 2014 May 23.0 TT = JDT 2456800.5 MPC
M 351.26042 (2000.0) P Q
n 0.26641909 Peri. 139.87597 -0.13202503 +0.99089790
a 2.3919888 Node 122.52214 -0.91725430 -0.11207542
e 0.6104789 Incl. 1.78620 -0.37578442 -0.07456847
P 3.70 H 29.1 G 0...